AMC-2 (GE-2)

Last updated on Wed Dec 16 2020 06:20:26 GMT+0000 (Coordinated Universal Time)

1 24713U 97002A 20350.64065345 .00000026 00000-0 00000-0 0 9996 2 24713 6.7144 59.3561 0000661 14.9113 131.8085 0.99465793 87432
UTC large
Height (km)
Speed (km/s)
/
Latitude / Longitude
Inclination (degrees)
Orbital Period (minutes)
Azimuth
Elevation
Range (km)
Doppler Factor

Next 0 passes for location: London (51.5072 / 0.1276)

Sorry there are no passes over London.
AMC-2 (GE-2)